Weather in Yesaulovo

Russia / Krasnoyarsk Krai     56°08′39″N   93°16′13″E
temp.,
°C
wind,
m/s
gust,
m/s
humid.,
%
clouds,
%
prec.,
mm/h
press.,
hPa
HPBL,
m
18 april, sun
sun1801:00−10s12864 0.0 102542
04:00−10se1288100 0.0 102360
07:00−6sse3580100 0.0 1021175
10:00−2s4767100 0.0 1018607
13:00+1sw5870100 0.0 10161263
16:00+2sw597289 0.2 1015893
19:00+1sw2376100 0.2 101443
22:00−1sse2382100 0.0 101357
19 april, mon
mon1901:00−1sse3783100 0.0 1009137
04:00+1sse61283100 0.0 1003541
07:00+2s61498100 1.3 996709
10:00+3sw61399100 1.5 993805
13:00+1wsw14207219 5.4 9981780
16:00−4w111873100 0.2 10091590
19:00−5w8146799 0.3 10151571
22:00−6w71371100 0.1 10171436
20 april, tue
tue2001:00−8wsw712715 0.2 10181166
04:00−8wsw71473100 0.0 10181616
07:00−8wsw8137163 0.1 10191144
10:00−6w91267100 0.0 10201273
13:00−3w91264100 0.1 10201605
16:00−2wnw81063100 0.1 10211615
19:00−3w586799 0.2 1022764
22:00−5w377898 0.1 1024193
21 april, wed
wed2101:00−6w258334 0.1 1024148
04:00−7wsw238435 0.0 102576
07:00−6wsw23785 0.0 1026199
10:00−3wsw2358100 0.0 10261115
13:00−1wnw124885 0.1 10251462
16:000n2147100 0.0 10251146
19:00−1n2358100 0.0 102697
22:00−2ne2366100 0.0 102876
22 april, thu
thu2201:00−3ne2372100 0.0 102885
04:00−3ne2374100 0.0 102989
07:00−3ne3569100 0.0 1031269
10:000ne5651100 0.0 10331066
13:00+2nne5542100 0.0 10341833
16:00+3nne4541100 0.0 10351763
19:00+1nne3558100 0.0 1037160
22:00−1nne367388 0.0 1039122